TimeEST,TemperatureF,Dew PointF,Humidity,Sea Level PressureIn,VisibilityMPH,Wind Direction,Wind SpeedMPH,Gust SpeedMPH,PrecipitationIn,Events,Conditions,WindDirDegrees,DateUTC
12:03 AM,42.8,37.4,81,29.95,10.0,Variable,3.5,-,N/A,,Overcast,0,2012-12-09 05:03:00
12:51 AM,42.1,36.0,79,30.02,10.0,NW,5.8,-,N/A,,Overcast,310,2012-12-09 05:51:00
1:37 AM,41.0,35.6,81,30.02,10.0,NNW,4.6,-,N/A,,Overcast,340,2012-12-09 06:37:00
1:51 AM,39.0,36.0,89,30.06,10.0,NNE,4.6,-,N/A,,Overcast,30,2012-12-09 06:51:00
2:51 AM,37.9,33.1,83,30.10,10.0,NW,11.5,19.6,N/A,,Overcast,320,2012-12-09 07:51:00
3:51 AM,37.0,30.9,79,30.13,10.0,NNW,9.2,17.3,N/A,,Overcast,330,2012-12-09 08:51:00
4:28 AM,35.6,30.2,81,30.12,10.0,NW,9.2,-,N/A,,Overcast,320,2012-12-09 09:28:00
4:51 AM,36.0,30.0,79,30.18,10.0,WNW,10.4,19.6,N/A,,Overcast,300,2012-12-09 09:51:00
5:13 AM,35.6,28.4,75,30.15,10.0,NNW,9.2,18.4,N/A,,Overcast,330,2012-12-09 10:13:00
5:51 AM,36.0,28.0,73,30.21,10.0,WNW,10.4,-,N/A,,Overcast,300,2012-12-09 10:51:00
6:03 AM,35.6,28.4,75,30.18,10.0,NW,11.5,17.3,N/A,,Overcast,310,2012-12-09 11:03:00
6:30 AM,35.6,28.4,75,30.20,10.0,WNW,10.4,-,N/A,,Overcast,300,2012-12-09 11:30:00
6:51 AM,34.0,28.0,79,30.26,10.0,NW,11.5,-,N/A,,Mostly Cloudy,320,2012-12-09 11:51:00
7:51 AM,34.0,28.0,79,30.28,10.0,NW,8.1,-,N/A,,Mostly Cloudy,310,2012-12-09 12:51:00
8:18 AM,33.8,28.4,81,30.25,10.0,NW,10.4,-,N/A,,Mostly Cloudy,310,2012-12-09 13:18:00
8:51 AM,35.1,28.0,76,30.31,10.0,NW,6.9,-,N/A,,Overcast,310,2012-12-09 13:51:00
9:26 AM,33.8,26.6,75,30.28,10.0,NW,9.2,18.4,N/A,,Scattered Clouds,310,2012-12-09 14:26:00
9:40 AM,33.8,26.6,75,30.29,10.0,WNW,6.9,-,N/A,,Mostly Cloudy,300,2012-12-09 14:40:00
9:51 AM,35.1,27.0,72,30.33,10.0,WNW,10.4,-,N/A,,Mostly Cloudy,290,2012-12-09 14:51:00
10:10 AM,33.8,26.6,75,30.29,10.0,NW,9.2,-,N/A,,Scattered Clouds,310,2012-12-09 15:10:00
10:51 AM,35.1,26.1,70,30.33,10.0,Variable,5.8,-,N/A,,Partly Cloudy,0,2012-12-09 15:51:00
11:51 AM,36.0,25.0,64,30.31,10.0,NW,6.9,-,N/A,,Clear,320,2012-12-09 16:51:00
12:51 PM,35.1,24.1,64,30.30,10.0,NW,4.6,-,N/A,,Clear,310,2012-12-09 17:51:00
1:51 PM,34.0,25.0,70,30.31,10.0,East,8.1,-,N/A,,Partly Cloudy,80,2012-12-09 18:51:00
2:51 PM,33.1,25.0,72,30.31,10.0,ENE,3.5,-,N/A,,Clear,70,2012-12-09 19:51:00
3:51 PM,30.0,25.0,82,30.34,10.0,Calm,Calm,-,N/A,,Partly Cloudy,0,2012-12-09 20:51:00
4:51 PM,28.4,24.8,86,30.32,10.0,Calm,Calm,-,N/A,,Partly Cloudy,0,2012-12-09 21:51:00
5:51 PM,30.0,24.1,79,30.34,10.0,Calm,Calm,-,N/A,,Clear,0,2012-12-09 22:51:00
6:51 PM,30.0,24.1,79,30.32,10.0,Calm,Calm,-,N/A,,Overcast,0,2012-12-09 23:51:00
7:51 PM,28.9,24.1,82,30.31,10.0,Calm,Calm,-,N/A,,Overcast,0,2012-12-10 00:51:00
8:51 PM,28.9,24.1,82,30.28,10.0,Calm,Calm,-,N/A,,Overcast,0,2012-12-10 01:51:00
9:51 PM,28.9,24.1,82,30.23,10.0,Calm,Calm,-,N/A,,Overcast,0,2012-12-10 02:51:00
10:51 PM,30.0,24.1,79,30.19,10.0,Calm,Calm,-,N/A,,Overcast,0,2012-12-10 03:51:00
11:46 PM,28.4,24.8,86,30.11,6.0,East,3.5,-,0.00,Snow,Light Snow,90,2012-12-10 04:46:00
11:51 PM,28.4,24.8,86,30.11,3.0,Calm,Calm,-,N/A,Snow,Light Snow,0,2012-12-10 04:51:00